When you browse on this site, cookies collect data to enhance your experience and personalize the content and advertising you see.
Visit our Privacy Policy to learn more. By continuing to use the site, you agree to this use of cookies and data.
  • în România
  • Lista ţărilor
  • Pe 7 zile
  • Temperatura apei
  • Hartă satelitară
  • Meteo pe hartă
  • Widget-uri
  • user-avatar
    Intrare

    Meteo pe oră la Zildyarovo

    Astăzi, 17 Februarie, Duminică

    Timp Temperatura Precipitaţii Vânt Presiune Umiditate
    00:00 -6°C° 0 mm 2 m/s 735 mmHg 97%
    01:00 -4°C° 0 mm 1 m/s 735 mmHg 98%
    02:00 -4°C° 0 mm 1 m/s 735 mmHg 98%
    03:00 -4°C° 0 mm 1 m/s 735 mmHg 98%
    04:00 -5°C° 0 mm 2 m/s 735 mmHg 98%
    05:00 -5°C° 0 mm 2 m/s 735 mmHg 97%
    06:00 -4°C° 0 mm 2 m/s 735 mmHg 97%
    07:00 -4°C° 0 mm 2 m/s 735 mmHg 97%
    08:00 -4°C° 0 mm 2 m/s 735 mmHg 97%
    09:00 -3°C° 0 mm 2 m/s 735 mmHg 97%
    10:00 -4°C° 0 mm 3 m/s 734 mmHg 96%
    11:00 -2°C° 0 mm 3 m/s 734 mmHg 95%
    12:00 -2°C° 0 mm 3 m/s 734 mmHg 94%
    13:00 -3°C° 0 mm 4 m/s 733 mmHg 93%
    14:00 -3°C° 0.1 mm 4 m/s 733 mmHg 92%
    15:00 -3°C° 0.1 mm 4 m/s 732 mmHg 91%
    16:00 -4°C° 0 mm 5 m/s 732 mmHg 91%
    17:00 -4°C° 0.1 mm 5 m/s 731 mmHg 91%
    18:00 -4°C° 0.1 mm 5 m/s 731 mmHg 92%
    19:00 -4°C° 0.1 mm 5 m/s 730 mmHg 92%
    20:00 -5°C° 0 mm 6 m/s 729 mmHg 92%
    21:00 -5°C° 0 mm 6 m/s 729 mmHg 92%
    22:00 -6°C° 0 mm 7 m/s 728 mmHg 91%
    23:00 -6°C° 0.1 mm 7 m/s 727 mmHg 91%

    Mâine, 18 Februarie, Luni

    Timp Temperatura Precipitaţii Vânt Presiune Umiditate
    00:00 -7°C° 0.1 mm 7 m/s 726 mmHg 91%
    01:00 -7°C° 0.1 mm 8 m/s 725 mmHg 91%
    02:00 -7°C° 0.4 mm 7 m/s 724 mmHg 92%
    03:00 -7°C° 0.4 mm 7 m/s 724 mmHg 92%
    04:00 -7°C° 0.4 mm 7 m/s 723 mmHg 93%
    05:00 -8°C° 0.3 mm 7 m/s 722 mmHg 93%
    06:00 -8°C° 0.3 mm 6 m/s 722 mmHg 93%
    07:00 -8°C° 0.3 mm 6 m/s 721 mmHg 93%
    08:00 -6°C° 0.1 mm 5 m/s 721 mmHg 93%
    09:00 -6°C° 0.1 mm 5 m/s 721 mmHg 93%
    10:00 -6°C° 0.1 mm 5 m/s 721 mmHg 93%
    11:00 -4°C° 0.2 mm 4 m/s 721 mmHg 93%
    12:00 -4°C° 0.2 mm 3 m/s 721 mmHg 92%
    13:00 -4°C° 0.2 mm 3 m/s 721 mmHg 92%
    14:00 -2°C° 0.2 mm 2 m/s 721 mmHg 93%
    15:00 -2°C° 0.2 mm 2 m/s 721 mmHg 93%
    16:00 0°C° 0.2 mm 1 m/s 721 mmHg 93%
    17:00 -3°C° 0.2 mm 2 m/s 721 mmHg 94%
    18:00 -3°C° 0.2 mm 2 m/s 722 mmHg 95%
    19:00 -5°C° 0.2 mm 3 m/s 722 mmHg 96%
    20:00 -5°C° 0.2 mm 3 m/s 722 mmHg 95%
    21:00 -5°C° 0.2 mm 4 m/s 723 mmHg 95%
    22:00 -5°C° 0.2 mm 5 m/s 723 mmHg 94%
    23:00 -6°C° 0.1 mm 5 m/s 724 mmHg 94%

    Poimâine, 19 Februarie, Marţi

    Timp Temperatura Precipitaţii Vânt Presiune Umiditate
    00:00 -7°C° 0.1 mm 5 m/s 725 mmHg 94%
    01:00 -8°C° 0.1 mm 5 m/s 725 mmHg 93%
    02:00 -8°C° 0 mm 5 m/s 726 mmHg 93%
    03:00 -8°C° 0 mm 5 m/s 727 mmHg 92%
    04:00 -8°C° 0 mm 5 m/s 728 mmHg 91%
    05:00 -11°C° 0.1 mm 7 m/s 729 mmHg 90%
    06:00 -12°C° 0.1 mm 8 m/s 730 mmHg 89%
    07:00 -14°C° 0.1 mm 9 m/s 731 mmHg 89%
    08:00 -15°C° 0 mm 9 m/s 733 mmHg 88%
    09:00 -15°C° 0 mm 9 m/s 734 mmHg 88%
    10:00 -16°C° 0 mm 9 m/s 735 mmHg 88%
    11:00 -17°C° 0 mm 9 m/s 736 mmHg 88%
    12:00 -17°C° 0 mm 8 m/s 737 mmHg 88%
    13:00 -18°C° 0 mm 8 m/s 738 mmHg 88%
    14:00 -18°C° 0 mm 8 m/s 738 mmHg 88%
    15:00 -19°C° 0 mm 7 m/s 739 mmHg 88%
    16:00 -19°C° 0 mm 7 m/s 740 mmHg 88%
    17:00 -20°C° 0 mm 6 m/s 741 mmHg 89%
    18:00 -20°C° 0 mm 5 m/s 741 mmHg 89%
    19:00 -20°C° 0 mm 4 m/s 742 mmHg 90%
    20:00 -22°C° 0 mm 4 m/s 743 mmHg 91%
    21:00 -22°C° 0 mm 3 m/s 743 mmHg 92%
    22:00 -23°C° 0 mm 3 m/s 744 mmHg 93%
    23:00 -21°C° 0 mm 2 m/s 744 mmHg 93%

    20 Februarie, Miercuri

    Timp Temperatura Precipitaţii Vânt Presiune Umiditate
    00:00 -21°C° 0 mm 2 m/s 744 mmHg 93%
    01:00 -23°C° 0 mm 2 m/s 744 mmHg 93%
    02:00 -19°C° 0 mm 1 m/s 745 mmHg 91%
    03:00 -18°C° 0 mm 1 m/s 745 mmHg 90%
    04:00 -17°C° 0 mm 1 m/s 745 mmHg 89%
    05:00 -16°C° 0.1 mm 1 m/s 745 mmHg 91%
    06:00 -18°C° 0.1 mm 2 m/s 745 mmHg 93%
    07:00 -17°C° 0.1 mm 2 m/s 745 mmHg 94%
    08:00 -16°C° 0 mm 2 m/s 745 mmHg 93%
    09:00 -17°C° 0 mm 3 m/s 746 mmHg 92%
    10:00 -16°C° 0 mm 3 m/s 746 mmHg 91%
    11:00 -17°C° 0 mm 4 m/s 746 mmHg 91%
    12:00 -16°C° 0 mm 4 m/s 745 mmHg 92%
    13:00 -15°C° 0 mm 4 m/s 745 mmHg 92%
    14:00 -15°C° 0 mm 5 m/s 745 mmHg 92%
    15:00 -15°C° 0 mm 5 m/s 745 mmHg 93%
    16:00 -15°C° 0 mm 6 m/s 745 mmHg 94%
    17:00 -16°C° 0 mm 6 m/s 745 mmHg 94%
    18:00 -16°C° 0 mm 6 m/s 744 mmHg 94%
    19:00 -17°C° 0 mm 6 m/s 744 mmHg 94%
    20:00 -16°C° 0 mm 6 m/s 744 mmHg 94%
    21:00 -16°C° 0 mm 6 m/s 744 mmHg 94%
    22:00 -16°C° 0 mm 6 m/s 744 mmHg 94%
    23:00 -16°C° 0 mm 6 m/s 744 mmHg 94%

    21 Februarie, Joi

    Timp Temperatura Precipitaţii Vânt Presiune Umiditate
    00:00 -16°C° 0 mm 6 m/s 744 mmHg 94%
    01:00 -16°C° 0 mm 6 m/s 743 mmHg 94%
    02:00 -16°C° 0 mm 6 m/s 743 mmHg 94%
    03:00 -16°C° 0 mm 6 m/s 743 mmHg 94%
    04:00 -16°C° 0 mm 6 m/s 743 mmHg 94%
    05:00 -16°C° 0 mm 6 m/s 743 mmHg 93%
    06:00 -16°C° 0 mm 6 m/s 743 mmHg 93%
    07:00 -16°C° 0 mm 6 m/s 743 mmHg 93%
    08:00 -17°C° 0 mm 7 m/s 743 mmHg 91%
    09:00 -15°C° 0 mm 7 m/s 743 mmHg 90%
    10:00 -15°C° 0 mm 8 m/s 743 mmHg 89%
    11:00 -13°C° 0 mm 8 m/s 743 mmHg 87%
    12:00 -12°C° 0 mm 8 m/s 743 mmHg 85%
    13:00 -11°C° 0 mm 8 m/s 743 mmHg 84%
    14:00 -11°C° 0 mm 8 m/s 743 mmHg 84%
    15:00 -11°C° 0 mm 8 m/s 743 mmHg 84%
    16:00 -11°C° 0 mm 8 m/s 743 mmHg 84%
    17:00 -11°C° 0 mm 8 m/s 743 mmHg 86%
    18:00 -11°C° 0 mm 8 m/s 743 mmHg 88%
    19:00 -11°C° 0 mm 8 m/s 743 mmHg 91%
    20:00 -11°C° 0 mm 8 m/s 743 mmHg 91%
    21:00 -10°C° 0 mm 8 m/s 742 mmHg 91%
    22:00 -8°C° 0 mm 8 m/s 742 mmHg 91%
    23:00 -8°C° 0.1 mm 8 m/s 741 mmHg 91%

    22 Februarie, Vineri

    Timp Temperatura Precipitaţii Vânt Presiune Umiditate
    00:00 -8°C° 0.1 mm 9 m/s 741 mmHg 91%
    01:00 -8°C° 0.1 mm 9 m/s 741 mmHg 91%
    02:00 -6°C° 0.3 mm 9 m/s 740 mmHg 91%
    03:00 -6°C° 0.3 mm 8 m/s 740 mmHg 91%
    04:00 -5°C° 0.3 mm 8 m/s 739 mmHg 91%
    05:00 -5°C° 0.3 mm 8 m/s 739 mmHg 91%
    06:00 -5°C° 0.3 mm 8 m/s 739 mmHg 91%
    07:00 -5°C° 0.3 mm 8 m/s 739 mmHg 91%
    08:00 -5°C° 0.3 mm 8 m/s 739 mmHg 91%
    09:00 -5°C° 0.3 mm 8 m/s 739 mmHg 91%
    10:00 -5°C° 0.3 mm 8 m/s 739 mmHg 91%
    11:00 -4°C° 0.2 mm 8 m/s 739 mmHg 91%
    12:00 -4°C° 0.2 mm 8 m/s 739 mmHg 91%
    13:00 -3°C° 0.2 mm 7 m/s 739 mmHg 91%
    14:00 -3°C° 0.2 mm 7 m/s 739 mmHg 92%
    15:00 -3°C° 0.2 mm 6 m/s 738 mmHg 92%
    16:00 -4°C° 0.2 mm 6 m/s 738 mmHg 93%
    17:00 -4°C° 0.6 mm 6 m/s 738 mmHg 93%
    18:00 -4°C° 0.6 mm 6 m/s 737 mmHg 93%
    19:00 -4°C° 0.6 mm 6 m/s 737 mmHg 94%
    20:00 -4°C° 0.4 mm 6 m/s 737 mmHg 92%
    21:00 -4°C° 0.4 mm 6 m/s 737 mmHg 90%
    22:00 -4°C° 0.4 mm 7 m/s 737 mmHg 89%
    23:00 -4°C° 0.2 mm 7 m/s 737 mmHg 90%
    Arată mai mult